Location: *
(33.8649°S, 62.1526°E)
Time: 12:10:09
(UTC+00:00)

Cosmos 405 - Pass Details

Date: 17 January 2021
Orbit: 448 x 462 km, 81.3° (Epoch: 02 March)

Event Time Altitude Azimuth Distance (km) Brightness Sun altitude
Exits shadow 17:01:50 32° 319° (NW) 807 4.1 -20.7°
Maximum altitude 17:03:07 52° 261° (W) 580 3.7 -20.9°
Drops below altitude 10° 17:06:35 10° 183° (S) 1,620 6.4 -21.4°
Sets 17:08:43 0° 177° (S) 2,500 7.3 -21.7°
